AirNav   Air Wisconsin pilot careers
 
 374 users online  

9KS1 Hartland Airport
Wellsville, Kansas, USA

GOING TO WELLSVILLE?


FAA INFORMATION EFFECTIVE 24 MAY 2018

Location

FAA Identifier: 9KS1
Lat/Long: 38-39-34.0000N / 095-05-32.0000W
38-39.566667N / 095-05.533333W
38.6594444 / -95.0922222
(estimated)
Elevation: 993 ft. / 303 m (estimated)
Variation: 05E (1995)
From city: 3 miles S of WELLSVILLE, KS
Time zone: UTC -5 (UTC -6 during Standard Time)
Zip code: 66092

Airport Operations

Airport use: Private use. Permission required prior to landing
Control tower: no
ARTCC: KANSAS CITY CENTER
FSS: WICHITA FLIGHT SERVICE STATION
Attendance: UNATNDD
Wind indicator: yes
Segmented circle: no

Airport Communications

WX AWOS-3 at OWI (10 nm SW): 118.25 (785-242-2185)
WX ASOS at IXD (14 nm NE): 135.325 (913-780-6987)

Nearby radio navigation aids

VOR radial/distance  VOR name  Freq  Var
TOPr138/35.7TOPEKA VORTAC117.8005E
BUMr302/36.7BUTLER VORTAC115.9007E

 
NDB name  Hdg/Dist  Freq  Var  ID
BOYD049/36.624505EUKL ..- -.- .-..

Airport Services

Runway Information

Runway 18/36

Dimensions: 2600 x 60 ft. / 792 x 18 m
Surface: turf
RUNWAY 18  RUNWAY 36
Traffic pattern: leftright

Airport Ownership and Management from official FAA records

Ownership: Privately-owned
Owner: GARY D HART
4612 RENO RD
WELLSVILLE, KS 66092
Phone 785-883-4152
Manager: GARY D HART
4612 RENO RD
WELLSVILLE, KS 66092
Phone 785-883-4152

Airport Operational Statistics

Aircraft based on the field: 3
Single engine airplanes: 3
    

Instrument Procedures

There are no published instrument procedures at 9KS1.

Some nearby airports with instrument procedures:

KOWI - Ottawa Municipal Airport (10 nm SW)
K81 - Miami County Airport (11 nm SE)
KIXD - New Century AirCenter Airport (14 nm NE)
KOJC - Johnson County Executive Airport (20 nm NE)
KLWC - Lawrence Municipal Airport (22 nm N)
 
Loc | Ops | Rwys | IFR | FBO | Links
Com | Nav | Svcs | Stats | Notes

Kansas City Aviation Department
 
Area around 9KS1 (Hartland Airport)
 
Road maps at: MapQuest Bing Google
 
Aerial photo
No photo
 
Sectional chart

 
Airport distance calculator
Flying to Hartland Airport? Find the distance to fly.

From to 9KS1

Sunrise and sunset
Times for 26-May-2018
 Local
(UTC-5)
 Zulu
(UTC)
Morning civil twilight05:3110:31
Sunrise06:0111:01
Sunset20:3301:33
Evening civil twilight21:0402:04

Current date and time
Zulu (UTC)  26-May-2018 06:40:54
Local (UTC-5)  26-May-2018 01:40:54
 
METAR
KOWI 
10nm SW 
260620Z AUTO 18006KT 10SM CLR 20/20 A2982 RMK AO2 PWINO
KIXD 
14nm NE 
260553Z AUTO 18004KT 10SM CLR 21/19 A2983 RMK AO2 SLP090 T02110194 10283 20211 402940189 50001
KOJC 
20nm NE 
260553Z AUTO 19005KT 10SM CLR 21/19 A2982 RMK AO2 SLP088 T02110189 10267 20211 402830178 58001
TAF
KIXD 
14nm NE 
260520Z 2606/2706 22006KT P6SM SCT250
NOTAMs
Click for the latest NOTAMs
NOTAMs are issued by the DoD/FAA and will open in a separate window not controlled by AirNav.

 

 
 

Would you like to see your business listed on this page?

 If your business provides an interesting product or service to pilots, flight crews, aircraft, or users of the Hartland Airport, you should consider listing it here.  To start the listing process, click on the button below
 
Add a business
 

Other Pages about Hartland Airport

Update a link
 
Copyright © AirNav, LLC. All rights reserved. Privacy Policy  Contact